Flag for Guadeloupe Weather past 2 weeks in Basse-Terre, Guadeloupe

Now
90 °F

Scattered clouds.


Feels Like: 92 °F
Forecast: 78 / 82 °F
Wind: 20 mph from East

Location: Le Raizet - Guadeloupe

Current Time: Jul 23, 2014 at 12:59:55 PM

Latest Report: Jul 23, 2014 at 12:30 PM


Visibility: N/A

Pressure: 30.04 "Hg

Humidity: 46%

Dew point: 66 °F

Location of Basse-TerreLocation

Historic Weather in Basse-Terre — Graph

°F

Basse-Terre temperature yesterday

Maximum temperature yesterday: 88 °F (at 12:30 PM)
Minimum temperature yesterday: 77 °F (at 1:30 AM)
Average temperature yesterday: 80 °F

Past Weeks' High & Low Weather Summary

 TemperatureHumidityPressure
High90 °F (Jul 13, 1:00 PM)94% (Jul 10, 5:30 AM)30.12 "Hg (Jul 10, 5:30 AM)
Low73 °F (Jul 18, 6:30 AM)46% (Jul 9, 3:04 PM)30.01 "Hg (Jul 9, 3:04 PM)
Average82 °F70%30.05 "Hg
* Reported Jul 8 12:12 PM — Jul 23 12:00 Noon, Basse-Terre, Weather by CustomWeather, © 2014

Note: Actual official high and low records may vary slightly from our data, if they occured in-between our weather recording intervals... More about our weather records

Advertising

Basse-Terre weather history for previous 24 hours

 ConditionsComfort  
Time TempWeatherWind HumidityBarometerVisibility
12:00 PM
Jul 23
88 °FScattered clouds.20 mph49%30.04 "HgN/A
11:30 AM88 °FScattered clouds.18 mph49%30.07 "HgN/A
11:00 AM88 °FScattered clouds.18 mph55%30.07 "HgN/A
10:30 AM88 °FScattered clouds.20 mph55%30.07 "HgN/A
10:00 AM86 °FScattered clouds.20 mph55%30.07 "HgN/A
9:30 AM86 °FScattered clouds.17 mph59%30.07 "HgN/A
9:00 AM86 °FScattered clouds.16 mph62%30.07 "HgN/A
8:30 AM84 °FScattered clouds.17 mph66%30.07 "HgN/A
8:00 AM82 °FScattered clouds.9 mph70%30.07 "HgN/A
7:30 AM82 °FScattered clouds.10 mph70%30.07 "HgN/A
7:00 AM81 °FPassing clouds.5 mph74%30.04 "HgN/A
6:30 AM79 °FLight rain. Passing clouds.7 mph79%30.04 "HgN/A
6:00 AM77 °FPassing clouds.6 mph89%30.04 "HgN/A
5:00 AM75 °FPassing clouds.No wind89%30.04 "HgN/A
1:30 AM75 °FPassing clouds.3 mph89%30.04 "HgN/A
1:00 AM75 °FClear.2 mph89%30.04 "HgN/A
12:30 AM79 °FClear.1 mph79%30.04 "HgN/A
12:00 AM79 °FClear.1 mph79%30.07 "HgN/A
11:30 PM
Jul 22
79 °FClear.5 mph79%30.07 "HgN/A
11:00 PM79 °FClear.5 mph79%30.07 "HgN/A
10:30 PM79 °FClear.8 mph79%30.07 "HgN/A
10:00 PM79 °FClear.7 mph79%30.07 "HgN/A
9:30 PM79 °FClear.6 mph79%30.07 "HgN/A
9:00 PM79 °FClear.7 mph84%30.07 "HgN/A
8:30 PM79 °FPassing clouds.7 mph84%30.07 "HgN/A
8:00 PM81 °FPassing clouds.8 mph79%30.07 "HgN/A
12:30 PM88 °FScattered clouds.17 mph55%30.04 "HgN/A
12:00 PM86 °FScattered clouds.15 mph62%30.07 "HgN/A
Weather by CustomWeather, © 2014

See weather overviewHow to use our weather pages